This is the latest recevied weather packets stored in our database for station/object VK3BKO-13. If no packets are shown the sender has not sent any weather packets the latest 10 day(s).
| Time | Temp. | Humidity | Pressure | Rain* | Wind** | Luminosity | Snow |
|---|---|---|---|---|---|---|---|
| 1778198525 | 13.89° C | 88% | 1022 hPa | 0 mm | - | 93 W/m² | - |
| 1778197625 | 13.33° C | 90% | 1022 hPa | 0 mm | - | 104 W/m² | - |
| 1778196724 | 13.33° C | 91% | 1022 hPa | 0 mm | - | 94 W/m² | - |
| 1778195823 | 13.33° C | 90% | 1022 hPa | 0 mm | - | 101 W/m² | - |
| 1778194925 | 12.78° C | 91% | 1021.7 hPa | 0 mm | - | 206 W/m² | - |
| 1778194024 | 12.78° C | 91% | 1021.4 hPa | 0.25 mm | - | 45 W/m² | - |
| 1778193124 | 12.78° C | 91% | 1021.4 hPa | 0.25 mm | - | 46 W/m² | - |
| 1778192223 | 12.78° C | 92% | 1021.4 hPa | 0 mm | - | 38 W/m² | - |
| 1778191324 | 12.78° C | 92% | 1021 hPa | 0 mm | - | 27 W/m² | - |
| 1778189524 | 12.22° C | 92% | 1020.4 hPa | 1.27 mm | - | 18 W/m² | - |
| 1778188624 | 12.22° C | 93% | 1020.4 hPa | 1.27 mm | - | 4 W/m² | - |
| 1778187725 | 12.22° C | 93% | 1020 hPa | 0 mm | - | 1 W/m² | - |
| 1778186825 | 12.22° C | 93% | 1020 hPa | 0.25 mm | - | 0 W/m² | - |
| 1778185923 | 12.22° C | 93% | 1020 hPa | 0.25 mm | - | 0 W/m² | - |
| 1778185024 | 12.22° C | 93% | 1020 hPa | 0.25 mm | - | 0 W/m² | - |
| 1778184124 | 12.22° C | 93% | 1020 hPa | 0 mm | - | 0 W/m² | - |
| 1778183224 | 12.22° C | 93% | 1019.7 hPa | 2.29 mm | - | 0 W/m² | - |
| 1778182324 | 12.22° C | 92% | 1019.3 hPa | 1.27 mm | - | 0 W/m² | - |
| 1778181424 | 12.22° C | 92% | 1019.7 hPa | 0.76 mm | - | 0 W/m² | - |
| 1778180526 | 12.78° C | 91% | 1019.3 hPa | 0.25 mm | - | 0 W/m² | - |
| 1778179624 | 12.78° C | 91% | 1019.3 hPa | 1.02 mm | - | 0 W/m² | - |
| 1778178724 | 12.78° C | 90% | 1018.7 hPa | 0.51 mm | - | 0 W/m² | - |
| 1778177824 | 12.78° C | 90% | 1019 hPa | 0.25 mm | - | 0 W/m² | - |
| 1778176924 | 12.78° C | 89% | 1019 hPa | 0 mm | - | 0 W/m² | - |
| 1778176024 | 12.78° C | 88% | 1018.7 hPa | 0 mm | - | 0 W/m² | - |
* Rain latest hour (hover to see other rain measurements)
** Current wind speed in m/s (hover to see current wind gust speed)